User: anonymous   Login
Location: Caltech
(34.1382°N, 118.1253°W)
Time: 04:48:09
(UTC-08:00)
Language:

Iridium 91 - Orbit

View from above orbital plane
View from above orbital plane
View from above satellite
View from above satellite

Ground track
Ground track

The orbit data is extracted from the following two-line orbital elements,

1 27372U 02005A   17015.52382603  .00000009  00000-0 -38297-5 0  9995
2 27372  86.3362 351.4411 0002445  93.7594  11.1389 14.34212903789749
Epoch (UTC): 15 January 2017 12:34:18
Eccentricity: 0.0002445
inclination: 86.3362°
perigee height: 776 km
apogee height: 779 km
right ascension of ascending node: 351.4411°
argument of perigee: 93.7594°
revolutions per day: 14.34212903
mean anomaly at epoch: 11.1389°
orbit number at epoch: 78974

The dashed part of the orbit path shows where the satellite is in the earth's shadow,  

DLR